Sexton Summit, OR

1:24 AM PDT on May 23, 2017 (GMT -0700)
Sexton Summit

Weather History for KSXT - August, 2013

Change the Weather History Date:

Thursday, August 1, 2013

  Actual Average Record
Temperature  
Mean Temperature 52 °F -  
Max Temperature 59 °F 75 °F 91 °F (2015)
Min Temperature 46 °F 52 °F 46 °F (2013)
Degree Days  
Heating Degree Days 12    
Growing Degree Days 2 (Base 50)    
Moisture  
Dew Point 46 °F    
Average Humidity 84    
Maximum Humidity 100    
Minimum Humidity 64    
Precipitation  
Precipitation 0.00 in - - ()
Sea Level Pressure  
Sea Level Pressure 30.13 in    
Wind  
Wind Speed 2 mph (North)    
Max Wind Speed 10 mph    
Max Gust Speed -    
Visibility 2 miles    
Events Fog    
Averages and records for this station are not official NWS values.
T = Trace of Precipitation, MM = Missing Value Source: NWS Daily Summary

Daily Weather History Graph

Daily Weather History Graph

Search for Another Location

Airport or City:

Trip Planner

Search our weather history database for the weather conditions in past years. The results will help you decide how hot, cold, wet, or windy it might be!

Date:

Astronomy

Aug. 01, 2013 Rise Set
Actual Time 6:05 AM PDT 8:33 PM PDT
Civil Twilight 5:33 AM PDT 9:05 PM PDT
Nautical Twilight 4:54 AM PDT 9:44 PM PDT
Astronomical Twilight 4:09 AM PDT 10:28 PM PDT
Moon 1:45 AM PDT (8/1) 4:47 PM PDT (8/1)
Length of Visible Light 15h 31m
Length of Day
14h 27m
Waning Crescent, 22% of the Moon is Illuminated
Aug 1
Waning Crescent
Aug 6
New
Aug 14
First Quarter
Aug 20
Full
Aug 28
Last Quarter

Hourly Weather History & Observations

Time (PDT) Temp. Windchill Dew Point Humidity Pressure Visibility Wind Dir Wind Speed Gust Speed Precip Events Conditions
4:56 AM 46.9 °F - 46.9 °F 100% 30.01 in 0.2 mi Calm Calm - N/A Fog Fog
5:56 AM 46.0 °F - 46.0 °F 100% 30.03 in 0.2 mi Calm Calm - N/A Fog Fog
6:56 AM 46.0 °F - 46.0 °F 100% 30.05 in 0.2 mi Calm Calm - N/A Fog Fog
7:56 AM 46.0 °F - 46.0 °F 100% 30.07 in 0.2 mi Calm Calm - N/A Fog Fog
8:56 AM 46.0 °F - 46.0 °F 100% 30.09 in 0.2 mi Calm Calm - N/A Fog Fog
9:56 AM 46.9 °F - 46.9 °F 100% 30.09 in 0.2 mi Calm Calm - N/A Fog Fog
10:49 AM 46.4 °F 45.2 °F 46.4 °F 100% 30.14 in 1.2 mi Variable 3.5 mph - N/A   Overcast
10:51 AM 46.4 °F - 46.4 °F 100% 30.14 in 2.0 mi Calm Calm - N/A   Overcast
10:56 AM 46.9 °F - 46.9 °F 100% 30.11 in 3.0 mi Calm Calm - N/A   Overcast
11:33 AM 48.2 °F - 46.4 °F 93% 30.14 in 4.0 mi Calm Calm - N/A   Overcast
11:56 AM 48.9 °F - 46.9 °F 93% 30.12 in 5.0 mi Calm Calm - N/A   Overcast
12:56 PM 48.9 °F - 46.9 °F 93% 30.12 in 2.0 mi NNW 3.5 mph - N/A   Overcast
1:04 PM 50.0 °F - 48.2 °F 94% 30.16 in 1.2 mi Calm Calm - N/A   Overcast
1:23 PM 51.8 °F - 46.4 °F 82% 30.16 in 0.8 mi Calm Calm - N/A   Haze
1:30 PM 53.6 °F - 48.2 °F 82% 30.16 in 0.5 mi Calm Calm - N/A   Haze
1:48 PM 51.8 °F - 46.4 °F 82% 30.16 in 0.5 mi Variable 3.5 mph - N/A   Haze
1:56 PM 53.1 °F - 46.9 °F 80% 30.12 in 0.8 mi Calm Calm - N/A   Haze
2:11 PM 55.4 °F - 46.4 °F 72% 30.16 in 0.8 mi Calm Calm - N/A   Haze
2:19 PM 55.4 °F - 46.4 °F 72% 30.16 in 1.0 mi Calm Calm - N/A   Haze
2:29 PM 55.4 °F - 46.4 °F 72% 30.16 in 0.8 mi Calm Calm - N/A   Haze
2:56 PM 57.9 °F - 46.9 °F 67% 30.10 in 0.8 mi Variable 3.5 mph - N/A   Haze
3:56 PM 59.0 °F - 48.0 °F 67% 30.10 in 1.2 mi Variable 3.5 mph - N/A   Haze
4:07 PM 55.4 °F - 46.4 °F 72% 30.16 in 1.8 mi Variable 3.5 mph - N/A   Haze
4:16 PM 55.4 °F - 46.4 °F 72% 30.16 in 2.0 mi Calm Calm - N/A   Haze
4:46 PM 57.2 °F - 46.4 °F 67% 30.15 in 3.0 mi Variable 3.5 mph - N/A   Haze
4:56 PM 59.0 °F - 46.9 °F 64% 30.09 in 3.0 mi Variable 3.5 mph - N/A   Haze
5:56 PM 57.0 °F - 46.0 °F 67% 30.10 in 3.0 mi Variable 4.6 mph - N/A   Haze
6:07 PM 55.4 °F - 46.4 °F 72% 30.15 in 2.5 mi Calm Calm - N/A   Haze
6:56 PM 55.0 °F - 45.0 °F 69% 30.11 in 3.0 mi Variable 4.6 mph - N/A   Haze
7:04 PM 53.6 °F - 44.6 °F 72% 30.15 in 4.0 mi Variable 4.6 mph - N/A   Haze
7:31 PM 53.6 °F - 46.4 °F 77% 30.15 in 2.5 mi Variable 4.6 mph - N/A   Haze
7:56 PM 51.1 °F - 45.0 °F 80% 30.12 in 2.0 mi Variable 4.6 mph - N/A   Haze
8:06 PM 51.8 °F - 44.6 °F 76% 30.15 in 1.8 mi Variable 3.5 mph - N/A   Haze
8:36 PM 50.0 °F - 44.6 °F 82% 30.15 in 2.0 mi Variable 4.6 mph - N/A   Haze
8:45 PM 50.0 °F - 44.6 °F 82% 30.15 in 2.5 mi NNW 4.6 mph - N/A   Haze
8:56 PM 48.9 °F - 45.0 °F 86% 30.13 in 2.5 mi NNW 8.1 mph - N/A   Overcast
9:13 PM 48.2 °F - 44.6 °F 87% 30.15 in 3.0 mi North 6.9 mph - N/A   Mostly Cloudy
9:22 PM 48.2 °F - 44.6 °F 87% 30.16 in 4.0 mi North 6.9 mph - N/A   Scattered Clouds
9:56 PM 48.9 °F - 45.0 °F 86% 30.13 in 6.0 mi North 10.4 mph - N/A   Clear
10:56 PM 48.9 °F - 46.9 °F 93% 30.13 in 10.0 mi NNE 8.1 mph - N/A   Clear
11:56 PM 48.0 °F - 46.9 °F 96% 30.12 in 10.0 mi NNE 8.1 mph - N/A   Clear